Tracking 32938 objects as of 12-Jan-2026
HD Live streaming from Space Station
objects crossing your sky now

DISKSAT A

Track DISKSAT A now!
10-day predictions


NORAD ID: 67222
Int'l Code: 2025-305D
Perigee: 553.4 km
Apogee: 556.4 km
Inclination: 45.0 °
Period: 95.6 minutes
Semi major axis: 6925 km
RCS: Unknown
Launch date: December 18, 2025
Source: United States (US)
Launch site: WALLOPS ISLAND (WLPIS)
Your satellite tracking list
Your tracking list is empty




NASA's NSSDC Master Catalog

Two Line Element Set (TLE):
1 67222U 25305D   26011.93573055  .00011252  00000-0  77033-3 0  9995
2 67222  45.0018 190.9837 0002116  31.0410 329.0590 15.06221951  3727
Source of the keplerian elements: AFSPC